Location: Banff
(51.1667°N, 115.5667°W)
Time: 03:41:14
(UTC+00:00)

Explorer 7 - Pass Details

Date: 29 November 2020
Orbit: 484 x 678 km, 50.3° (Epoch: 16 January)

Event Time Altitude Azimuth Distance (km) Brightness Sun altitude
Exits shadow 12:44:03 74° 140° (SE) 580 6.9 -23.9°
Drops below altitude 10° 12:47:50 10° 100° (E) 1,782 10.5 -23.3°
Sets 12:49:59 0° 99° (E) 2,642 11.8 -23.0°
